www.pogodaiklimat.ru

Погода и климат >> Архив погоды >> Россия >> Еврейская автономная область >> Екатерино-Никольское


АРХИВ ПОГОДЫ в Екатерино-Никольском

Время (UTC), дата Ветер
(напр.,м/с)
 
Видим.   Явления Облачность Т
(С)
Тd
(С)
f
(%)
Тe
(С)
Тes
(С)
Комфортность P
(гПа)
Po
(гПа)
Тmin
(С)
Tmax
(С)
R
(мм)
R24
(мм)
S
(см)
00 19.08 С 1 20 км в посл. час туман 10/8 600 м
[Cb calv Ac und]
+18.2 +15.8 86 +20 +20 1010.3 1001.9
03 19.08 ЮЗ 1 50 км 10/8 600 м
[Cb calv Ac trans Ci fib]
+21.4 +16.3 73 +25 +27 комфорт 1010.5 1002.2
06 19.08 Ю 1 50 км 10/6 600 м
[Cb calv Ci fib]
+23.5 +16.0 63 +27 +30 душно 1009.7 1001.5
09 19.08 СЗ 3 50 км 10/8 600 м
[Cb calv Ci fib]
+19.1 +17.0 88 +21 +21 комфорт 1010.8 1002.4 +23.7
12 19.08 СЗ 2 20 км {ливн. осадки} 10/6 600 м
[Cb cap Ci fib]
+17.2 +16.5 96 +18 +18 1011.9 1003.4
15 19.08 СЗ 3 20 км 10/8 600 м
[Cb cap Ac As Ci fib]
+16.3 +14.9 91 +16 +16 1012.4 1003.9
18 19.08 С 2 20 км 10/4 600 м
[Sc Ac As Ci fib]
+15.5 +14.2 92 +15 +15 1012.3 1003.8
21 19.08 СЗ 3 50 км 10/6 600 м
[Sc Ac As Ci fib]
+15.0 +13.6 91 +14 +14 1012.9 1004.3 +14.7 0.0
00 20.08 СЗ 3 50 км 8/8 600 м
[Sc]
+18.4 +14.3 77 +19 +20 1012.9 1004.4
03 20.08 З 1 50 км 6/4 600 м
[Cu Sc Ci fib]
+22.7 +14.9 61 +26 +36 жарко 1012.2 1003.8
06 20.08 ЮЗ 1 50 км 10/6 600 м
[Cb calv Ac As Ci fib]
+22.8 +13.0 54 +26 +28 жарко 1010.9 1002.5
09 20.08 Ю 1 50 км 10/6 600 м
[Sc Ac As Cs]
+21.3 +16.0 72 +25 +25 комфорт 1010.6 1002.2 +23.8
12 20.08 С 1 20 км 10/8 600 м
[Cb calv Ac und]
+16.7 +16.0 96 +18 +18 1010.8 1002.3
15 20.08 СЗ 1 20 км 10/8 600 м
[Sc Ac und Ci fib]
+15.8 +15.4 97 +16 +16 1010.4 1001.9
18 20.08 СВ 1 20 км 10/8 600 м
[Sc Ac und Ci fib]
+15.9 +15.4 97 +17 +17 1008.8 1000.3
21 20.08 СВ 3 20 км 10/8 600 м
[Cb calv Ac und]
+16.7 +16.0 96 +16 +16 1008.3 999.8 +15.6
00 21.08 В 4 20 км 10/8 600 м
[Cb calv Ac As]
+19.6 +18.2 92 +22 +22 комфорт 1007.0 998.6
03 21.08 ЮВ 5 20 км 10/8 600 м
[Cb calv Ac As]
+21.3 +18.8 86 +26 +26 душно 1005.0 996.7
06 21.08 В 3 4000 м ливневой дождь 10/10 600 м
[Cb calv]
+19.6 +18.7 95 +22 +22 комфорт 1004.3 995.9
09 21.08 В 4
{11}
20 км в посл. час ливневой дождь 10/8 600 м
[Cb calv Ac As]
+18.4 +17.1 92 +19 +19 1003.4 995.0 +21.3 10
12 21.08 В 3 20 км {ливн. осадки} 10/10 600 м
[Cb cap]
+18.9 +17.6 92 +21 +21 комфорт 1003.2 994.9
15 21.08 штиль 0 20 км в посл. час ливневой дождь 10/8 600 м
[Cb cap Ac As Ci fib]
+15.1 +14.4 96 +15 +15 1003.6 995.1
18 21.08 СВ 2 20 км {ливн. осадки} 10/6 600 м
[Cb cap Ac As]
+15.9 +15.5 97 +16 +16 1003.6 995.2
21 21.08 В 1 20 км в посл. час дождь 10/8 600 м
[Sc Ac As]
+16.6 +16.1 97 +17 +17 1004.0 995.6 +14.3 3
00 22.08 ЮВ 2 20 км {дождь} 10/10 600 м
[Cb cap]
+17.8 +16.8 94 +18 +18 1004.8 996.4
03 22.08 В 3 20 км {ливн. осадки} 10/8 600 м
[Cb cap Ac As]
+20.2 +17.6 85 +24 +24 комфорт 1004.8 996.5
06 22.08 В 3 20 км {ливн. осадки} 10/8 600 м
[Cb cap Ac As Cs]
+22.8 +18.3 76 +28 +29 душно 1004.3 996.1
09 22.08 В 3
{11}
20 км 10/8 600 м
[Cb cap Ac As]
+19.5 +16.8 84 +22 +22 комфорт 1005.5 997.2 +23.5 3
12 22.08 СВ 4
{11}
4000 м гроза, ливневой дождь 10/10 600 м
[Cb calv]
+17.4 +16.6 95 +17 +17 1007.3 998.9
15 22.08 СВ 3 20 км слаб. ливневой дождь {гроза} 10/10 600 м
[Cb calv]
+16.1 +15.7 97 +16 +16 1007.5 999.0
18 22.08 СВ 3 20 км в посл. час ливневой дождь 10/10 600 м
[Cb calv]
+16.2 +15.7 97 +16 +16 1007.6 999.1
21 22.08 СВ 4 20 км в посл. час ливневой дождь 10/10 600 м
[Cb calv]
+16.0 +15.5 97 +15 +15 1008.2 999.7 +15.5 17
00 23.08 СВ 5 20 км слаб. ливневой дождь 10/8 600 м
[Cb calv Ac und]
+16.5 +15.0 91 +16 +16 1009.5 1001.0
03 23.08 СВ 4
{11}
20 км {ливн. осадки} 10/8 600 м
[Cb calv Ac und]
+17.3 +14.5 84 +17 +18 1009.9 1001.5
06 23.08 СВ 4 50 км {ливн. осадки} 10/8 600 м
[Cb calv Ac und]
+18.7 +14.9 79 +20 +20 1009.5 1001.1
09 23.08 СВ 3 20 км 10/8 600 м
[Cb calv Ac und]
+18.3 +15.3 83 +19 +19 1009.9 1001.5 +19.0
12 23.08 С 2 20 км {ливн. осадки} 10/8 600 м
[Cb cap Ac As]
+16.6 +15.3 92 +17 +17 1010.9 1002.4
15 23.08 С 2 20 км 10/10 600 м
[Cb cap]
+16.7 +14.6 87 +17 +17 1011.4 1002.9
18 23.08 С 2 20 км 10/6 600 м
[Cb cap Ac As Cs]
+16.0 +14.5 91 +16 +16 1011.5 1003.0
21 23.08 С 1 20 км 10/8 600 м
[Cb cap Ac As Cs]
+15.9 +14.0 88 +17 +17 1012.0 1003.5 +15.7 0.0
00 24.08 СВ 3 50 км 10/5 600 м
[Cb calv Ac As Ci fib]
+19.0 +13.4 70 +20 +22 1012.4 1004.0
03 24.08 СВ 2 50 км 8/5 600 м
[Cb calv Ac As Ci fib]
+21.5 +13.6 61 +24 +29 комфорт 1012.1 1003.7
06 24.08 В 3 50 км 9/6 600 м
[Cb calv Ac trans Ci fib]
+20.1 +15.0 72 +23 +25 комфорт 1010.9 1002.5
09 24.08 ЮВ 1 50 км 9/8 600 м
[Cb calv Ci fib]
+19.1 +15.5 80 +22 +22 комфорт 1010.8 1002.4 +21.8
12 24.08 ЮЗ 1 20 км 10/8 600 м
[Cb calv Ac trans Ci fib]
+16.9 +15.9 94 +18 +18 1012.0 1003.5
15 24.08 ЮЗ 1 20 км слаб. ливневой дождь 10/8 600 м
[Cb calv Ac und]
+16.5 +15.8 96 +17 +17 1011.7 1003.2
18 24.08 Ю 1 20 км {ливн. осадки} 9/8 600 м
[Cb calv Ac trans Ci fib]
+15.4 +14.9 97 +16 +16 1011.4 1002.9
21 24.08 СЗ 1 20 км 10/8 600 м
[Cb calv Ac trans Cs]
+15.3 +14.9 97 +16 +16 1012.4 1003.8 +13.9
00 25.08 В 1 10 км слаб. дождь 10/8 600 м
[Cb cap Ac As]
+16.7 +16.0 96 +18 +18 1013.0 1004.5
03 25.08 В 2 20 км {дождь} 10/8 600 м
[Cb cap Ac As]
+19.2 +15.7 80 +21 +22 комфорт 1012.6 1004.2
06 25.08 СВ 3 50 км {дождь} 10/8 600 м
[Cb calv Ac trans Ci fib]
+20.4 +15.7 74 +24 +24 комфорт 1012.0 1003.6
09 25.08 ЮВ 2 50 км 8/3 600 м
[Sc Ac trans Ci fib]
+19.8 +15.2 75 +23 +23 комфорт 1012.0 1003.6 +21.4
12 25.08 СВ 1 20 км 6/1 600 м
[Sc Ci fib]
+14.4 +13.8 96 +15 +15 1012.6 1004.0
15 25.08 С 1 20 км 10/0
[Ac trans Ci fib]
+12.9 +12.4 97 +13 +13 1012.8 1004.2
18 25.08 СЗ 1 500 м туман ?/? +13.1 +12.7 97 +13 +13 1012.6 1004.0

 

Местоположение метеостанции Екатерино-Никольское (Еврейская автономная область, Россия): широта 47.75 долгота 130.90 высота над уровнем моря 72 м.

В архиве по умолчанию представлена погода в Екатерино-Никольском за последнюю неделю. Архивные данные за месяц целиком и за предыдущие месяцы, начиная с января 2011 года, Вы можете получить, выбрав интересующий диапазон дат из раскрывающегося списка и нажав кнопку "Ввод!".


*Определитесь, кто Вы:
робот инопланетянин человек

Внимание! Время в таблицах - всемирное. Для получения местного времени необходимо прибавить поправку, которая равна 10 ч.

Смотрите также архив погоды в соседних городах и на ближайших метеорологических станциях:

Погода в Биджане (Еврейская автономная область, Россия) (76 км)
Погода в Фуцзине (Хэйлунцзян, Китай) (100 км)
Погода в Ленинское (Еврейская автономная область, Россия) (129 км)
Погода в Облучье (Еврейская автономная область, Россия) (139 км)
Погода в Ичунь (Хэйлунцзян, Китай) (150 км)
Погода в Биробиджане (Еврейская автономная область, Россия) (184 км)
Погода в Баоцине (Хэйлунцзян, Китай) (186 км)
Погода в Архаре (Амурская область, Россия) (197 км)
Погода в Смидовиче (Еврейская автономная область, Россия) (235 км)
Погода в Малиновке (Амурская область, Россия) (237 км)

Пояснения к столбцам:

Ветер - указаны скорость ветра в м/с - средняя за 10 мин, порывы в срок и между сроками (в фигурных скобках) и направление, откуда дует ветер: С - северный, СВ - северо-восточный, В - восточный, ЮВ - юго-восточный, Ю - южный, ЮЗ - юго-западный, З - западный, СЗ - северо-западный.
Видимость - горизонтальная дальность видимости в метрах или километрах. При видимости от 1 до 10 км при отсутствии осадков обычно наблюдается дымка, при ухудшении видимости до 1 км и менее - туман. В сухую погоду видимость может ухудшаться дымом, пылью или мглою.
Явления - указаны атмосферные явления, наблюдавшиеся в срок или в последний час перед сроком; фигурными скобками обозначены явления, наблюдавшиеся между сроками (за 1-3 часа до срока); квадратными скобками обозначены град или гололедные отложения с указанием их диаметра в мм.
Облачность - указаны через наклонную черту общая и нижняя облачность в баллах и высота нижней границы облаков в метрах; квадратными скобками обозначены формы облаков: Ci - перистые, Cs - перисто-слоистые, Cc - перисто-кучевые, Ac - высококучевые, As - высокослоистые, Sc - слоисто-кучевые, Ns - слоисто-дождевые, Cu - кучевые, Cb - кучево-дождевые. Подробнее классификацию облаков см. в Атласе облаков (PDF).
T - Температура воздуха - температура, измеренная на высоте 2 м над землей.
Td - Температура точки росы - температура, при понижении до которой содержащийся в воздухе водяной пар достигнет насыщения.
f - Относительная влажность воздуха - влажноcть воздуха, измеренная на высоте 2 м над землей.
Te - Эффективная температура - температура, которую ощущает одетый по сезону человек в тени. Характеристика душности погоды. При расчете учитывается влияние влажности воздуха и скорости ветра на теплоощущения человека.
Tes - Эффективная температура на солнце - температура, которую ощущает человек, с поправкой на солнечный нагрев. Характеристика знойности погоды. Зависит от высоты солнца над горизонтом, облачности и скорости ветра. Ночью, в пасмурную погоду, а также при ветре 12 м/с и более поправка равна нулю.
P - Атмосферное давление - приведенное к уровню моря атмосферное давление.
Po - Атмосферное давление - измеренное на уровне метеостанции атмосферное давление.
Tmin - Минимальная температура - минимум температуры воздуха на высоте 2 м над землей.
Tmax - Максимальная температура - максимум температуры воздуха на высоте 2 м над землей.
R - Количество осадков - Количество выпавших осадков за период времени, мм. При наведении курсора мыши на число - период времени, за который выпало указанное количество осадков.
R24 - Количество осадков - Количество выпавших осадков за 24 часа, мм.
S - Снежный покров - Высота снежного покрова, см. При наведении курсора мыши на число - состояние снежного покрова и степень покрытия местности в баллах.